W0QQ Weather Reports


Display with metric or nautical units.
time (UTC)temp
F
wind
direction
speed
MPH
gust
MPH
rain 1hr
in
rain 24hr
in
rain mn
in
humidity
%
barometer
mb
20260509170111 79 240 3.0 10.0 0.00 0.00 0.00 52 1009.8
20260509164540 78 11 2.0 11.0 0.00 0.00 0.00 54 1009.7
20260509163117 77 292 2.0 13.0 0.00 0.00 0.00 57 1009.7
20260509161531 75 267 4.0 14.0 0.00 0.00 0.00 57 1009.9
20260509160120 75 290 5.0 13.0 0.00 0.00 0.00 57 1009.8
20260509154542 73 278 4.0 11.0 0.00 0.00 0.00 61 1009.7
20260509153127 72 232 5.0 14.0 0.00 0.00 0.00 60 1009.9
20260509151557 70 11 3.0 14.0 0.00 0.00 0.00 63 1009.8
20260509150005 68 11 6.0 13.0 0.00 0.00 0.00 65 1009.8
20260509144601 67 276 2.0 9.0 0.00 0.00 0.00 71 1010.0
20260509143017 65 237 4.0 13.0 0.00 0.00 0.00 73 1009.8
20260509141607 62 245 4.0 13.0 0.00 0.00 0.00 79 1009.7
20260509140031 60 251 4.0 11.0 0.00 0.00 0.00 85 1009.7
20260509134615 58 232 2.0 8.0 0.00 0.00 0.00 89 1009.7
20260509133027 56 208 2.0 8.0 0.00 0.00 0.00 92 1009.7
20260509131636 55 248 3.0 10.0 0.00 0.00 0.00 93 1009.8
20260509130048 54 218 2.0 10.0 0.00 0.00 0.00 94 1009.6
20260509124627 53 284 1.0 8.0 0.00 0.00 0.00 94 1009.5
20260509123033 52 248 2.0 6.0 0.00 0.00 0.00 94 1009.2
20260509121615 52 225 0.0 3.0 0.00 0.00 0.00 93 1009.3
20260509120033 52 224 1.0 4.0 0.00 0.00 0.00 93 1009.1
20260509114627 52 223 0.0 4.0 0.00 0.00 0.00 93 1008.9
20260509113041 52 222 1.0 7.0 0.00 0.00 0.00 93 1008.9
20260509111501 52 11 0.0 5.0 0.00 0.00 0.00 93 1008.7
20260509110104 53 11 1.0 5.0 0.00 0.00 0.00 93 1008.6
20260509104507 53 207 2.0 6.0 0.00 0.00 0.00 93 1008.4
20260509103059 53 11 2.0 8.0 0.00 0.00 0.00 93 1008.2
20260509101506 53 11 2.0 6.0 0.00 0.00 0.00 93 1008.5
20260509100054 53 195 2.0 6.0 0.00 0.00 0.00 93 1008.3
20260509094509 53 209 1.0 8.0 0.00 0.00 0.00 93 1008.4
20260509093058 53 210 1.0 5.0 0.00 0.00 0.00 93 1008.6
20260509091511 54 11 0.0 5.0 0.00 0.00 0.00 93 1008.5
20260509090105 54 201 2.0 6.0 0.00 0.00 0.00 93 1008.5
20260509084521 54 207 2.0 7.0 0.00 0.00 0.00 93 1008.4
20260509083111 55 11 3.0 7.0 0.00 0.00 0.00 93 1008.3
20260509081540 55 11 1.0 9.0 0.00 0.00 0.00 93 1008.2
20260509080117 55 214 2.0 10.0 0.00 0.00 0.00 93 1008.4
20260509074534 55 228 2.0 11.0 0.00 0.00 0.00 93 1008.3
20260509073127 56 219 3.0 11.0 0.00 0.00 0.00 93 1008.5
20260509071533 55 11 2.0 10.0 0.00 0.00 0.00 93 1008.5
20260509070126 55 11 3.0 14.0 0.00 0.00 0.00 92 1008.6
20260509064539 55 202 2.0 9.0 0.00 0.00 0.00 92 1008.8
20260509063128 55 11 1.0 6.0 0.00 0.00 0.00 91 1008.9
20260509061542 55 11 1.0 6.0 0.00 0.00 0.00 91 1008.9
20260509060132 55 195 1.0 4.0 0.00 0.00 0.00 91 1009.1
20260509054604 55 11 2.0 5.0 0.00 0.00 0.00 90 1009.1
20260509053005 56 11 1.0 6.0 0.00 0.00 0.00 90 1009.0
20260509051554 56 11 2.0 5.0 0.00 0.00 0.00 90 1009.1
20260509050015 56 11 2.0 6.0 0.00 0.00 0.00 89 1009.1
20260509044612 56 187 0.0 2.0 0.00 0.00 0.00 88 1009.2
20260509043033 57 186 0.0 5.0 0.00 0.00 0.00 89 1009.0
20260509041618 57 11 1.0 4.0 0.00 0.00 0.00 89 1008.9
20260509040046 57 11 1.0 5.0 0.00 0.00 0.00 89 1009.1
20260509034633 57 11 1.0 3.0 0.00 0.00 0.00 88 1009.2
20260509033046 57 203 0.0 2.0 0.00 0.00 0.00 87 1009.2
20260509031634 57 207 1.0 4.0 0.00 0.00 0.00 87 1009.3
20260509030046 58 208 2.0 4.0 0.00 0.00 0.00 87 1009.2
20260509024632 58 213 1.0 3.0 0.00 0.00 0.00 86 1008.8
20260509023053 58 220 1.0 5.0 0.00 0.00 0.00 85 1008.6
20260509021506 59 303 0.0 1.0 0.00 0.00 0.00 84 1008.4
20260509020100 60 306 0.0 0.0 0.00 0.00 0.00 82 1008.2
20260509014517 60 305 0.0 0.0 0.00 0.00 0.00 82 1008.3
20260509013118 61 307 0.0 1.0 0.00 0.00 0.00 81 1008.1
20260509011522 62 306 0.0 1.0 0.00 0.00 0.00 80 1007.9
20260509010112 63 305 0.0 1.0 0.00 0.00 0.00 80 1007.8
20260509004523 63 307 0.0 3.0 0.00 0.00 0.00 79 1007.7
20260509003139 63 307 0.0 5.0 0.00 0.00 0.00 78 1007.4
20260509001532 64 347 0.0 3.0 0.00 0.00 0.00 78 1007.1
20260509000121 64 334 0.0 4.0 0.00 0.00 0.00 78 1006.9
20260508234552 64 30 0.0 3.0 0.00 0.00 0.00 78 1007.1
20260508233004 64 283 1.0 8.0 0.00 0.00 0.00 80 1007.2
20260508231550 63 238 2.0 5.0 0.00 0.00 0.00 82 1007.0
20260508230002 63 11 0.0 0.0 0.00 0.00 0.00 81 1007.0
20260508224605 62 141 0.0 3.0 0.00 0.00 0.00 83 1006.8
20260508223008 62 11 0.0 8.0 0.00 0.00 0.00 84 1006.4
20260508221558 62 102 2.0 7.0 0.00 0.00 0.00 86 1006.7
20260508220007 62 50 1.0 2.0 0.00 0.00 0.00 85 1007.7
20260508214558 62 50 2.0 6.0 0.00 0.00 0.00 83 1008.1
20260508213012 63 55 1.0 6.0 0.00 0.00 0.00 81 1008.4
20260508211550 64 11 1.0 6.0 0.00 0.00 0.00 80 1008.7
20260508210008 65 35 0.0 6.0 0.00 0.00 0.00 78 1008.9
20260508204552 65 20 0.0 5.0 0.00 0.00 0.00 76 1008.6
20260508203006 66 352 0.0 4.0 0.00 0.00 0.00 76 1009.0
20260508201605 66 238 0.0 3.0 0.00 0.00 0.00 76 1008.8
20260508200010 66 238 0.0 4.0 0.00 0.00 0.00 80 1009.0
20260508194606 65 80 1.0 4.0 0.00 0.00 0.00 77 1008.3
20260508193020 65 82 2.0 5.0 0.00 0.00 0.00 76 1007.9
20260508191609 65 11 1.0 7.0 0.00 0.00 0.00 76 1008.6
20260508190023 65 11 2.0 6.0 0.00 0.00 0.00 78 1008.8
20260508184612 65 138 0.0 5.0 0.00 0.00 0.00 76 1008.4
20260508183017 65 11 2.0 8.0 0.00 0.00 0.00 74 1009.0
20260508181601 65 11 0.0 4.0 0.00 0.00 0.00 75 1009.0
20260508180005 65 218 0.0 3.0 0.00 0.00 0.00 74 1008.9
20260508174605 65 217 0.0 6.0 0.00 0.00 0.00 74 1009.3
20260508173010 64 209 1.0 8.0 0.00 0.00 0.00 74 1009.4
20260508171605 63 217 2.0 6.0 0.00 0.00 0.00 75 1009.6